Location: Carr Mill
(33.2054°N, 85.9439°W)
Time: 01:29:12
(UTC+00:00)

STARLINK-2732 - Pass Details

Date: 31 October 2021
Orbit: 545 x 549 km, 53.1° (Epoch: 30 November)

Event Time Altitude Azimuth Distance (km) Brightness Sun altitude
Exits shadow 10:38:16 15° 340° (NNW) 1,507 5.6 -17.9°
Drops below altitude 10° 10:40:12 10° 7° (N) 1,818 6.3 -17.5°
Sets 10:43:12 0° 30° (NNE) 2,715 7.5 -16.9°
